Retour au catalogue

STARLINK-32259

ActifCommunicationsVLEO
NORAD 60937·PAYLOAD·🇺🇸 United States

Lancé Aug 31, 2024 depuis Vandenberg Space Force Base

Loading…

Prochains Passages (prochaines 24 heures)

TLE

FraisSource: CelesTrak SupGP

Époque: Sep 14, 2026, 21:10 UTC

1 60937C 24155P   26257.88243056 -.00015565  00000+0 -46005-3 0  2578
2 60937  53.1585 328.3191 0001137  88.1382 262.6572 15.34387164    16

Suivez STARLINK-32259 en temps réel avec AllMySat

Download on the App Store